1506819600.38,21162,14.38,74100.5,-1.19,-42.89,-43.09,0,*56
1506819601.65,21163,14.38,74106.0,-1.19,-43.21,-43.21,0,*5E
1506819602.92,21164,14.44,74106.8,-1.19,-42.57,-42.83,0,*50
1506819604.15,21165,14.38,74104.0,-1.17,-42.89,-43.09,0,*5F
1506819605.4,21166,14.38,74106.5,-1.17,-43.21,-43.29,0,*5D
1506819606.62,21167,14.44,74104.8,-1.17,-43.21,-43.49,0,*5A
1506819607.88,21168,14.44,74106.3,-1.19,-43.21,-43.41,0,*53
1506819609.1,21169,14.44,74104.5,-1.17,-43.21,-43.41,0,*5C
1506819610.33,21170,14.44,74106.5,-1.15,-43.15,-43.21,0,*57
1506819611.56,21171,14.44,74112.5,-1.17,-42.63,-42.83,0,*5D
1506819612.81,21172,14.38,74102.8,-1.17,-42.69,-42.83,0,*54
1506819614.04,21173,14.38,74100.5,-1.15,-42.63,-42.83,0,*5D
1506819615.3,21174,14.38,74106.0,-1.15,-43.09,-43.21,0,*5E
1506819616.52,21175,14.38,74100.0,-1.15,-43.35,-43.41,0,*56
1506819617.74,21176,14.44,74104.5,-1.17,-43.21,-43.41,0,*52
1506819618.97,21177,14.44,74100.8,-1.17,-42.89,-43.09,0,*5C
1506819620.21,21178,14.44,74104.8,-1.15,-43.01,-43.21,0,*5A
1506819621.43,21179,14.44,74106.3,-1.15,-43.61,-43.87,0,*51
1506819622.64,21180,14.38,74104.8,-1.15,-43.49,-43.49,0,*5F
1506819623.86,21181,14.38,74104.8,-1.17,-43.67,-43.87,0,*52
1506819625.1,21182,14.44,74106.5,-1.15,-43.67,-43.87,0,*53
1506819626.33,21183,14.38,74104.0,-1.17,-43.67,-43.95,0,*53
1506819627.54,21184,14.44,74108.0,-1.15,-43.61,-43.61,0,*5B
1506819628.77,21185,14.38,74106.5,-1.17,-43.67,-43.87,0,*56
1506819630.01,21186,14.44,74110.0,-1.17,-44.13,-44.33,0,*59
1506819631.23,21187,14.38,74108.3,-1.17,-44.33,-44.53,0,*5C
1506819632.43,21188,14.38,74106.8,-1.17,-43.87,-43.95,0,*56
1506819633.66,21189,14.44,74104.0,-1.17,-43.49,-43.55,0,*59
1506819634.95,21190,14.44,74102.8,-1.19,-43.55,-43.67,0,*53
1506819636.17,21191,14.38,74106.0,-1.17,-42.89,-43.21,0,*5E
1506819637.42,21192,14.44,74106.5,-1.17,-43.09,-43.21,0,*54
1506819638.7,21193,14.44,74110.3,-1.19,-43.09,-43.29,0,*53
1506819639.94,21194,14.38,74102.0,-1.15,-43.01,-43.29,0,*50
1506819641.19,21195,14.44,74106.0,-1.17,-43.21,-43.29,0,*51
1506819642.4,21196,14.38,74106.5,-1.15,-43.35,-43.35,0,*58
1506819643.66,21197,14.44,74106.3,-1.17,-43.09,-43.29,0,*59
1506819644.91,21198,14.44,74110.0,-1.17,-43.09,-43.21,0,*5E
1506819646.13,21199,14.38,74100.5,-1.17,-43.67,-43.87,0,*5B
1506819647.34,21200,14.38,74104.8,-1.15,-43.61,-43.87,0,*5C
1506819648.58,21201,14.38,74106.0,-1.15,-43.55,-43.75,0,*57
1506819649.84,21202,14.38,74102.5,-1.15,-43.67,-43.81,0,*5E
1506819651.1,21203,14.38,74108.5,-1.15,-42.83,-42.95,0,*50
1506819652.31,21204,14.38,74104.0,-1.15,-43.15,-43.15,0,*50
1506819653.54,21205,14.38,74106.3,-1.17,-43.49,-43.55,0,*5E
1506819654.79,21206,14.38,74106.0,-1.15,-43.49,-43.67,0,*5E
1506819656.04,21207,14.44,74104.0,-1.17,-43.29,-43.55,0,*5A
1506819657.26,21208,14.44,74110.0,-1.17,-43.21,-43.49,0,*50
1506819658.47,21209,14.44,74108.8,-1.15,-43.35,-43.49,0,*56
1506819659.69,21210,14.44,74106.5,-1.15,-43.49,-43.61,0,*5F
1506819660.94,21211,14.44,74106.0,-1.17,-43.55,-43.67,0,*57
1506819662.2,21212,14.38,74100.3,-1.17,-43.55,-43.55,0,*55
1506819663.4,21213,14.38,74102.5,-1.17,-43.75,-43.95,0,*5A
1506819664.64,21214,14.38,74106.0,-1.15,-43.81,-43.87,0,*57
1506819665.84,21215,14.38,74106.8,-1.17,-43.49,-43.75,0,*5D
1506819667.09,21216,14.38,74106.0,-1.17,-43.67,-43.67,0,*51
1506819668.33,21217,14.38,74104.8,-1.15,-43.61,-43.81,0,*5C
1506819669.54,21218,14.38,74100.8,-1.17,-43.75,-43.95,0,*51
1506819670.77,21219,14.44,74104.3,-1.17,-43.49,-43.67,0,*52
1506819672.0,21220,14.44,74110.8,-1.17,-43.29,-43.41,0,*5A
1506819673.24,21221,14.44,74108.3,-1.15,-43.09,-43.35,0,*58
1506819674.47,21222,14.38,74104.3,-1.17,-43.55,-43.75,0,*54
1506819675.69,21223,14.44,74110.5,-1.17,-43.95,-44.13,0,*5E
1506819676.91,21224,14.44,74110.3,-1.17,-43.67,-43.87,0,*5E
1506819678.14,21225,14.38,74106.8,-1.17,-43.67,-43.87,0,*5F
1506819679.37,21226,14.38,74108.3,-1.17,-43.67,-43.95,0,*5F
1506819680.62,21227,14.38,74110.3,-1.17,-43.55,-43.67,0,*52
1506819681.84,21228,14.38,74110.8,-1.17,-44.07,-44.13,0,*59
1506819683.04,21229,14.38,74112.0,-1.17,-43.87,-44.27,0,*50
1506819684.25,21230,14.38,74106.5,-1.21,-43.95,-44.27,0,*5E
1506819685.5,21231,14.44,74108.8,-1.19,-43.95,-44.13,0,*53
1506819686.72,21232,14.44,74110.5,-1.19,-44.07,-44.27,0,*5B
1506819687.95,21233,14.44,74114.3,-1.21,-43.95,-44.33,0,*58
1506819689.17,21234,14.38,74108.0,-1.21,-44.13,-44.41,0,*53
1506819690.43,21235,14.38,74110.0,-1.21,-44.01,-44.33,0,*54
1506819691.68,21236,14.38,74110.3,-1.21,-44.13,-44.21,0,*57
1506819692.94,21237,14.44,74114.0,-1.21,-44.01,-44.21,0,*55
1506819694.17,21238,14.38,74112.0,-1.21,-44.21,-44.53,0,*5D
1506819695.4,21239,14.38,74108.0,-1.21,-44.21,-44.41,0,*5F
1506819696.63,21240,14.38,74112.3,-1.21,-44.21,-44.41,0,*51
1506819697.89,21241,14.38,74110.8,-1.23,-44.01,-44.41,0,*50
1506819699.12,21242,14.38,74110.0,-1.23,-44.07,-44.27,0,*55
1506819700.35,21243,14.38,74108.5,-1.25,-44.21,-44.41,0,*56
1506819701.57,21244,14.38,74112.8,-1.25,-43.87,-44.21,0,*5C
1506819702.79,21245,14.38,74110.0,-1.25,-44.07,-44.47,0,*52
1506819704.05,21246,14.44,74114.5,-1.23,-44.07,-44.21,0,*57
1506819705.3,21247,14.38,74110.8,-1.25,-43.81,-44.21,0,*59
1506819706.49,21248,14.44,74112.3,-1.25,-43.87,-43.87,0,*5B
1506819707.74,21249,14.44,74118.0,-1.25,-43.81,-44.01,0,*55
1506819708.96,21250,14.38,74114.0,-1.25,-43.81,-44.07,0,*5B
1506819710.18,21251,14.44,74114.5,-1.25,-43.81,-43.87,0,*55
1506819711.46,21252,14.44,74114.5,-1.23,-43.81,-44.01,0,*59
1506819712.69,21253,14.38,74112.3,-1.25,-43.81,-44.07,0,*58
1506819713.94,21254,14.38,74108.3,-1.23,-43.67,-43.87,0,*5E
1506819715.19,21255,14.38,74112.3,-1.25,-43.81,-44.01,0,*58
1506819716.43,21256,14.44,74110.5,-1.25,-43.81,-44.01,0,*5B
1506819717.65,21257,14.44,74114.5,-1.25,-43.81,-43.87,0,*53
1506819718.88,21258,14.38,74108.3,-1.25,-43.67,-43.87,0,*54
1506819720.13,21259,14.38,74106.0,-1.25,-43.81,-44.01,0,*54
1506819721.36,21260,14.38,74112.8,-1.27,-43.61,-43.75,0,*56
1506819722.56,21261,14.44,74112.0,-1.25,-43.87,-44.07,0,*5F
1506819723.81,21262,14.38,74104.3,-1.25,-43.67,-44.01,0,*54
1506819725.06,21263,14.44,74108.3,-1.25,-43.55,-43.67,0,*53
1506819726.29,21264,14.38,74110.0,-1.25,-43.35,-43.55,0,*53
1506819727.55,21265,14.38,74108.8,-1.23,-43.41,-43.67,0,*56
1506819728.78,21266,14.44,74110.8,-1.25,-43.41,-43.55,0,*52
1506819730.01,21267,14.38,74108.8,-1.25,-43.67,-43.87,0,*58
1506819731.22,21268,14.44,74110.5,-1.25,-43.61,-43.61,0,*59
1506819732.45,21269,14.38,74112.3,-1.25,-42.95,-43.15,0,*51
1506819733.68,21270,14.38,74110.0,-1.25,-43.01,-43.21,0,*52
1506819734.96,21271,14.38,74104.3,-1.23,-43.55,-43.67,0,*56
1506819736.17,21272,14.38,74104.5,-1.25,-43.41,-43.61,0,*50
1506819737.45,21273,14.38,74112.8,-1.23,-42.95,-43.21,0,*5B
1506819738.74,21274,14.38,74118.5,-1.23,-43.55,-43.67,0,*53
1506819739.94,21275,14.44,74116.3,-1.25,-43.87,-44.07,0,*5A
1506819741.16,21276,14.44,74114.0,-1.25,-43.87,-44.01,0,*5F
1506819742.36,21277,14.38,74114.5,-1.25,-43.41,-43.61,0,*55
1506819743.59,21278,14.44,74114.5,-1.25,-43.81,-44.07,0,*51
1506819744.84,21279,14.44,74118.0,-1.23,-43.81,-43.87,0,*59
1506819746.07,21280,14.38,74112.8,-1.23,-43.41,-43.61,0,*5B
1506819747.33,21281,14.38,74114.5,-1.25,-42.95,-43.21,0,*50
1506819748.58,21282,14.38,74112.5,-1.25,-43.67,-44.01,0,*5A
1506819749.85,21283,14.38,74116.0,-1.23,-43.81,-44.01,0,*55
1506819751.08,21284,14.38,74112.8,-1.25,-43.67,-43.87,0,*55
1506819752.3,21285,14.38,74112.0,-1.25,-44.01,-44.27,0,*5E
1506819753.53,21286,14.38,74118.0,-1.25,-43.81,-44.07,0,*50
1506819754.75,21287,14.38,74114.0,-1.25,-43.35,-43.55,0,*5E
1506819756.01,21288,14.38,74112.8,-1.23,-43.21,-43.41,0,*57
1506819757.24,21289,14.38,74116.5,-1.25,-43.41,-43.55,0,*53
1506819758.45,21290,14.44,74116.8,-1.25,-43.15,-43.35,0,*5C
1506819759.67,21291,14.38,74118.8,-1.25,-42.75,-42.83,0,*56
1506819760.93,21292,14.44,74116.0,-1.23,-42.45,-42.63,0,*5E
1506819762.2,21293,14.38,74114.0,-1.23,-42.75,-42.95,0,*55
1506819763.45,21294,14.44,74114.0,-1.23,-42.57,-42.63,0,*5B
1506819764.68,21295,14.38,74108.8,-1.21,-42.69,-42.89,0,*51
1506819765.89,21296,14.38,74106.8,-1.21,-42.75,-42.89,0,*5F
1506819767.14,21297,14.38,74108.3,-1.19,-42.83,-43.01,0,*5D
1506819768.39,21298,14.38,74106.8,-1.19,-42.63,-42.83,0,*57
1506819769.66,21299,14.38,74110.3,-1.19,-42.45,-42.69,0,*56
1506819770.91,21300,14.44,74106.5,-1.19,-42.83,-43.01,0,*52
1506819772.15,21301,14.38,74108.8,-1.17,-43.01,-43.21,0,*54
1506819773.4,21302,14.38,74108.0,-1.17,-43.09,-43.21,0,*5F
1506819774.63,21303,14.44,74108.5,-1.17,-43.29,-43.41,0,*5A
1506819775.88,21304,14.44,74116.3,-1.17,-43.55,-43.67,0,*52
1506819777.13,21305,14.44,74112.3,-1.17,-43.21,-43.09,0,*58
1506819778.38,21306,14.44,74110.0,-1.17,-43.09,-43.21,0,*5B
1506819779.63,21307,14.38,74110.8,-1.17,-43.21,-43.29,0,*58
1506819780.85,21308,14.38,74110.8,-1.17,-43.55,-43.87,0,*50
1506819782.05,21309,14.44,74108.3,-1.17,-43.75,-44.07,0,*5C
1506819783.25,21310,14.38,74104.5,-1.17,-43.87,-44.07,0,*59
1506819784.48,21311,14.38,74106.0,-1.17,-43.49,-43.55,0,*5A
1506819785.71,21312,14.38,74104.0,-1.15,-43.15,-43.29,0,*59
1506819786.94,21313,14.38,74106.0,-1.21,-43.61,-43.81,0,*5E
1506819788.2,21314,14.38,74108.0,-1.19,-43.49,-43.67,0,*50
1506819789.48,21315,14.38,74100.5,-1.19,-42.69,-43.09,0,*5A
1506819790.73,21316,14.44,74104.5,-1.19,-42.51,-42.69,0,*55
1506819791.99,21317,14.44,74108.8,-1.19,-42.83,-43.01,0,*54
1506819793.21,21318,14.44,74110.0,-1.17,-42.69,-42.89,0,*50
1506819794.48,21319,14.38,74106.5,-1.15,-42.95,-42.95,0,*5D
1506819795.72,21320,14.38,74100.8,-1.15,-42.63,-42.83,0,*59
1506819796.93,21321,14.38,74106.0,-1.15,-42.75,-43.01,0,*54
1506819798.15,21322,14.44,74108.3,-1.15,-43.01,-43.15,0,*50
1506819799.41,21323,14.38,74106.5,-1.13,-42.95,-43.01,0,*5E
1506819800.67,21324,14.38,74106.0,-1.13,-43.21,-43.35,0,*50
1506819801.91,21325,14.38,74104.5,-1.13,-43.35,-43.41,0,*57
1506819803.14,21326,14.38,74108.5,-1.15,-43.81,-43.87,0,*57
1506819804.41,21327,14.38,74108.5,-1.15,-43.55,-43.67,0,*51
1506819805.64,21328,14.44,74112.3,-1.15,-43.87,-44.01,0,*56
1506819806.85,21329,14.38,74106.8,-1.15,-43.61,-43.87,0,*56
1506819808.06,21330,14.44,74108.0,-1.15,-43.87,-44.27,0,*5B
1506819809.26,21331,14.38,74106.8,-1.17,-43.75,-43.95,0,*5B
1506819810.5,21332,14.38,74106.0,-1.15,-43.81,-44.07,0,*5D
1506819811.72,21333,14.38,74108.0,-1.17,-44.07,-44.13,0,*52
1506819812.92,21334,14.38,74110.3,-1.17,-43.87,-43.95,0,*53
1506819814.17,21335,14.38,74110.3,-1.17,-44.13,-44.33,0,*53
1506819815.36,21336,14.38,74106.8,-1.17,-43.87,-44.07,0,*5D
1506819816.59,21337,14.44,74108.5,-1.17,-43.67,-43.75,0,*50
1506819817.84,21338,14.38,74106.0,-1.19,-43.29,-43.49,0,*54
1506819819.1,21339,14.38,74100.3,-1.19,-43.29,-43.49,0,*55
1506819820.35,21340,14.38,74104.5,-1.19,-43.55,-43.87,0,*52
1506819821.6,21341,14.38,74108.3,-1.19,-43.55,-43.75,0,*5E
1506819822.85,21342,14.38,74104.3,-1.17,-43.29,-43.29,0,*51
1506819824.1,21343,14.44,74108.3,-1.19,-43.67,-43.87,0,*50
1506819825.33,21344,14.38,74108.5,-1.19,-43.95,-43.95,0,*59
1506819826.58,21345,14.38,74100.0,-1.19,-43.87,-44.13,0,*52
1506819827.83,21346,14.38,74102.0,-1.19,-43.01,-43.21,0,*59
1506819829.09,21347,14.38,74102.8,-1.19,-42.89,-43.09,0,*53
1506819830.29,21348,14.44,74104.3,-1.17,-42.63,-42.89,0,*5F
1506819831.51,21349,14.38,74102.8,-1.17,-42.83,-43.01,0,*51
1506819832.76,21350,14.38,74102.0,-1.17,-42.83,-42.95,0,*55
1506819834.02,21351,14.38,74100.5,-1.17,-43.29,-43.29,0,*53
1506819835.27,21352,14.44,74102.3,-1.17,-43.09,-43.29,0,*52
1506819836.5,21353,14.38,74102.8,-1.17,-43.01,-43.21,0,*53
1506819837.74,21354,14.38,74098.8,-1.15,-42.63,-42.95,0,*5D
1506819838.98,21355,14.38,74100.0,-1.15,-42.95,-43.15,0,*5C
1506819840.23,21356,14.38,74102.8,-1.15,-42.75,-42.95,0,*58
1506819841.44,21357,14.38,74102.8,-1.15,-43.35,-43.41,0,*54
1506819842.66,21358,14.38,74096.5,-1.15,-43.41,-43.49,0,*50
1506819843.87,21359,14.38,74096.5,-1.15,-43.41,-43.49,0,*51
1506819845.09,21360,14.38,74102.5,-1.15,-43.41,-43.49,0,*5B
1506819846.32,21361,14.38,74106.8,-1.15,-43.15,-43.21,0,*55
1506819847.53,21362,14.38,74100.3,-1.15,-43.35,-43.41,0,*52
1506819848.75,21363,14.38,74098.5,-1.15,-43.61,-43.87,0,*58
1506819849.96,21364,14.38,74100.8,-1.15,-43.35,-43.41,0,*54
1506819851.2,21365,14.38,74104.5,-1.15,-42.83,-43.15,0,*58
1506819852.44,21366,14.44,74104.5,-1.15,-42.95,-43.01,0,*59
1506819853.69,21367,14.38,74102.0,-1.13,-43.15,-43.21,0,*55
1506819854.96,21368,14.44,74104.0,-1.13,-43.01,-43.21,0,*5F
1506819856.2,21369,14.38,74102.5,-1.13,-43.41,-43.49,0,*54
1506819857.45,21370,14.38,74104.0,-1.13,-43.67,-43.87,0,*5A
1506819858.71,21371,14.44,74104.5,-1.13,-43.61,-43.81,0,*5B
1506819860.0,21372,14.38,74104.0,-1.13,-43.81,-44.21,0,*5B
1506819861.26,21373,14.38,74108.5,-1.13,-44.01,-44.41,0,*53
1506819862.52,21374,14.38,74108.0,-1.13,-44.21,-44.27,0,*56
1506819863.8,21375,14.38,74110.8,-1.13,-43.67,-44.01,0,*56
1506819865.04,21376,14.38,74112.5,-1.15,-43.87,-44.21,0,*5F
1506819866.25,21377,14.38,74114.0,-1.15,-44.07,-44.27,0,*57
1506819867.51,21378,14.38,74110.8,-1.15,-43.81,-44.01,0,*55
1506819868.76,21379,14.38,74114.5,-1.17,-44.21,-44.33,0,*5A
1506819870.03,21380,14.44,74114.5,-1.15,-44.01,-44.21,0,*5F
1506819871.25,21381,14.38,74112.0,-1.17,-44.07,-44.33,0,*59
1506819872.49,21382,14.44,74112.3,-1.15,-44.01,-44.41,0,*5B
1506819873.69,21383,14.44,74112.3,-1.17,-43.75,-43.87,0,*51
1506819874.88,21384,14.38,74110.8,-1.17,-43.87,-44.07,0,*54
1506819876.14,21385,14.44,74112.8,-1.19,-43.67,-43.95,0,*59
1506819877.37,21386,14.38,74108.5,-1.19,-43.75,-43.95,0,*59
1506819878.62,21387,14.38,74104.5,-1.19,-43.95,-44.13,0,*5F
1506819879.83,21388,14.38,74108.0,-1.21,-43.75,-43.95,0,*5C
1506819881.09,21389,14.38,74106.8,-1.19,-43.49,-43.67,0,*54
1506819882.34,21390,14.38,74104.3,-1.19,-43.21,-43.49,0,*5E
1506819883.59,21391,14.38,74100.8,-1.19,-43.21,-43.41,0,*57
1506819884.87,21392,14.38,74106.3,-1.19,-43.29,-43.55,0,*59
1506819886.13,21393,14.38,74104.0,-1.19,-42.89,-43.09,0,*5A
1506819887.38,21394,14.38,74104.8,-1.19,-43.29,-43.49,0,*52
1506819888.63,21395,14.38,74106.8,-1.19,-43.95,-44.13,0,*5C
1506819889.83,21396,14.38,74104.3,-1.17,-43.87,-44.07,0,*57
1506819891.02,21397,14.38,74108.0,-1.17,-43.87,-44.07,0,*56
1506819892.28,21398,14.38,74102.3,-1.19,-43.67,-43.95,0,*55
1506819893.51,21399,14.44,74108.0,-1.19,-43.95,-44.07,0,*55
1506819894.73,21400,14.38,74104.5,-1.19,-43.95,-44.07,0,*52
1506819895.99,21401,14.38,74104.5,-1.21,-43.81,-44.01,0,*5B
1506819897.24,21402,14.38,74106.0,-1.19,-43.49,-43.67,0,*50
1506819898.49,21403,14.38,74106.8,-1.19,-43.55,-43.87,0,*52
1506819899.7,21404,14.38,74106.8,-1.21,-43.75,-43.95,0,*5F
1506819900.93,21405,14.38,74106.5,-1.21,-43.75,-44.01,0,*54
1506819902.18,21406,14.38,74108.3,-1.19,-43.55,-43.75,0,*5A
1506819903.41,21407,14.38,74108.5,-1.19,-43.87,-43.95,0,*5A
1506819904.64,21408,14.38,74110.0,-1.19,-43.75,-43.87,0,*5B
1506819905.89,21409,14.38,74110.0,-1.19,-43.21,-43.49,0,*59
1506819907.14,21410,14.38,74110.0,-1.19,-42.83,-42.89,0,*55
1506819908.39,21411,14.38,74106.8,-1.19,-43.21,-43.41,0,*58
1506819909.67,21412,14.38,74114.5,-1.19,-43.09,-43.29,0,*5F
1506819910.92,21413,14.38,74112.0,-1.17,-43.21,-43.29,0,*5A
1506819912.15,21414,14.38,74108.5,-1.17,-43.67,-43.95,0,*58
1506819913.4,21415,14.38,74110.8,-1.19,-43.41,-43.55,0,*5F
1506819914.65,21416,14.38,74114.3,-1.21,-43.81,-44.13,0,*5E
1506819915.89,21417,14.38,74108.3,-1.19,-43.75,-43.95,0,*56
1506819917.14,21418,14.38,74110.3,-1.21,-44.01,-44.21,0,*5E
1506819918.4,21419,14.38,74108.3,-1.19,-43.49,-43.55,0,*5B
1506819919.63,21420,14.38,74114.3,-1.19,-43.41,-43.41,0,*5C
1506819920.87,21421,14.38,74118.5,-1.19,-43.49,-43.75,0,*52
1506819922.12,21422,14.38,74112.0,-1.21,-44.01,-44.33,0,*54
1506819923.39,21423,14.38,74112.8,-1.19,-44.13,-44.33,0,*5D
1506819924.64,21424,14.38,74112.0,-1.19,-44.07,-44.33,0,*5F
1506819925.87,21425,14.38,74110.0,-1.21,-44.33,-44.41,0,*57
1506819927.09,21426,14.38,74104.8,-1.21,-43.95,-44.13,0,*58
1506819928.32,21427,14.38,74110.5,-1.21,-43.81,-43.95,0,*55
1506819929.58,21428,14.38,74110.0,-1.23,-43.67,-44.07,0,*5C
1506819930.84,21429,14.38,74104.5,-1.23,-43.55,-43.61,0,*5B
1506819932.05,21430,14.38,74110.0,-1.21,-43.15,-43.41,0,*57
1506819933.32,21431,14.38,74106.5,-1.19,-43.09,-43.29,0,*5E
1506819934.6,21432,14.38,74110.3,-1.19,-43.21,-43.29,0,*57
1506819935.83,21433,14.38,74106.3,-1.21,-43.29,-43.35,0,*58
1506819937.04,21434,14.38,74100.3,-1.21,-43.15,-43.35,0,*50
1506819938.26,21435,14.38,74098.3,-1.21,-42.57,-42.89,0,*50
1506819939.5,21436,14.38,74102.8,-1.21,-42.95,-43.15,0,*59
1506819940.75,21437,14.38,74102.0,-1.19,-42.83,-43.01,0,*51
1506819942.0,21438,14.38,74102.0,-1.19,-42.69,-42.89,0,*5B
1506819943.23,21439,14.38,74106.5,-1.19,-42.89,-43.01,0,*55
1506819944.49,21440,14.38,74100.8,-1.15,-42.83,-42.95,0,*51
1506819945.71,21441,14.38,74102.0,-1.17,-42.83,-43.01,0,*5E
1506819946.97,21442,14.38,74104.5,-1.17,-43.09,-43.29,0,*54
1506819948.19,21443,14.38,74102.0,-1.15,-43.01,-43.01,0,*55
1506819949.43,21444,14.38,74104.5,-1.15,-43.01,-43.21,0,*50
1506819950.68,21445,14.38,74104.8,-1.17,-43.29,-43.29,0,*51
1506819951.92,21446,14.38,74104.3,-1.15,-43.01,-43.21,0,*52
1506819953.16,21447,14.38,74098.3,-1.15,-42.75,-42.95,0,*5F
1506819954.38,21448,14.38,74102.3,-1.15,-42.63,-42.75,0,*59
1506819955.61,21449,14.38,74104.8,-1.15,-42.83,-43.01,0,*54
1506819956.87,21450,14.38,74106.3,-1.13,-42.57,-42.75,0,*51
1506819958.13,21451,14.38,74104.0,-1.13,-42.83,-43.01,0,*5B
1506819959.4,21452,14.38,74104.5,-1.13,-42.75,-42.95,0,*5D
1506819960.69,21453,14.38,74104.0,-1.13,-42.95,-42.95,0,*52
1506819961.93,21454,14.38,74106.3,-1.11,-43.09,-43.35,0,*58
1506819963.17,21455,14.38,74104.8,-1.13,-43.41,-43.49,0,*5C
1506819964.38,21456,14.38,74104.3,-1.11,-43.35,-43.35,0,*55
1506819965.6,21457,14.38,74104.5,-1.11,-43.61,-43.61,0,*54
1506819966.86,21458,14.38,74106.0,-1.13,-43.61,-43.81,0,*57
1506819968.09,21459,14.38,74108.0,-1.11,-43.29,-43.35,0,*57
1506819969.33,21460,14.38,74110.5,-1.13,-43.15,-43.41,0,*53
1506819970.57,21461,14.38,74106.3,-1.13,-43.35,-43.49,0,*58
1506819971.8,21462,14.38,74110.3,-1.11,-43.29,-43.41,0,*5C
1506819973.09,21463,14.38,74112.0,-1.13,-43.67,-44.01,0,*56
1506819974.32,21464,14.38,74106.5,-1.13,-43.61,-43.87,0,*5E
1506819975.58,21465,14.38,74108.8,-1.13,-43.87,-44.01,0,*5E
1506819976.84,21466,14.38,74108.3,-1.13,-43.61,-43.81,0,*5A
1506819978.09,21467,14.38,74106.8,-1.13,-43.67,-43.87,0,*5B
1506819979.35,21468,14.38,74108.3,-1.13,-44.01,-44.07,0,*5C
1506819980.61,21469,14.38,74108.5,-1.13,-43.67,-43.87,0,*55
1506819981.88,21470,14.38,74108.3,-1.13,-43.61,-43.67,0,*55
1506819983.11,21471,14.38,74108.8,-1.11,-43.55,-43.75,0,*52
1506819984.35,21472,14.38,74108.5,-1.13,-43.41,-43.49,0,*59
1506819985.56,21473,14.38,74108.5,-1.11,-43.15,-43.15,0,*52
1506819986.79,21474,14.38,74106.3,-1.15,-43.21,-43.35,0,*54
1506819988.03,21475,14.38,74108.8,-1.13,-43.35,-43.41,0,*55
1506819989.29,21476,14.38,74104.8,-1.13,-43.21,-43.49,0,*5B
1506819990.53,21477,14.38,74106.5,-1.13,-43.35,-43.35,0,*54
1506819991.78,21478,14.38,74104.8,-1.13,-42.83,-43.01,0,*50
1506819993.03,21479,14.38,74104.5,-1.13,-43.01,-43.15,0,*5F
1506819994.29,21480,14.38,74106.5,-1.13,-43.21,-43.35,0,*59
1506819995.54,21481,14.44,74114.3,-1.13,-43.21,-43.49,0,*53
1506819996.81,21482,14.38,74108.8,-1.13,-43.49,-43.67,0,*52
1506819998.07,21483,14.38,74112.5,-1.13,-43.67,-43.87,0,*51
1506819999.28,21484,14.38,74112.5,-1.11,-43.35,-43.41,0,*59
1506820000.53,21485,14.38,74112.8,-1.13,-43.81,-43.87,0,*5F
1506820001.79,21486,14.38,74108.0,-1.13,-43.61,-43.81,0,*54
1506820003.05,21487,14.38,74112.5,-1.13,-43.61,-43.81,0,*55
1506820004.29,21488,14.38,74110.3,-1.13,-43.49,-43.61,0,*5E
1506820005.51,21489,14.38,74112.0,-1.15,-43.61,-43.61,0,*53
1506820006.74,21490,14.38,74114.0,-1.11,-43.75,-44.01,0,*5B
1506820008.0,21491,14.38,74108.3,-1.13,-43.81,-44.07,0,*55
1506820009.26,21492,14.38,74114.3,-1.13,-43.49,-43.67,0,*53
1506820010.52,21493,14.38,74114.5,-1.13,-43.61,-43.81,0,*50
1506820011.78,21494,14.38,74110.5,-1.13,-43.67,-43.87,0,*57
1506820013.07,21495,14.38,74108.0,-1.13,-44.01,-44.21,0,*5A
1506820014.33,21496,14.38,74108.5,-1.15,-43.81,-44.01,0,*52
1506820015.57,21497,14.38,74108.3,-1.15,-44.21,-44.27,0,*5A
1506820016.8,21498,14.38,74110.0,-1.15,-43.61,-43.81,0,*5D
1506820018.06,21499,14.38,74106.8,-1.15,-43.81,-44.01,0,*5D
1506820019.26,21500,14.38,74108.8,-1.17,-43.95,-44.07,0,*5D
1506820020.53,21501,14.38,74110.5,-1.15,-44.01,-44.21,0,*50
1506820021.75,21502,14.38,74110.5,-1.17,-43.95,-44.13,0,*5A
1506820023.0,21503,14.38,74108.3,-1.17,-44.13,-44.33,0,*50
1506820024.22,21504,14.38,74110.0,-1.17,-43.87,-44.13,0,*5F
1506820025.44,21505,14.38,74108.8,-1.17,-43.95,-44.13,0,*5D
1506820026.65,21506,14.38,74110.3,-1.17,-43.75,-43.95,0,*59
1506820027.87,21507,14.38,74102.5,-1.17,-43.29,-43.49,0,*50
1506820029.11,21508,14.38,74100.8,-1.17,-43.29,-43.41,0,*57
1506820030.34,21509,14.38,74108.5,-1.15,-42.83,-43.15,0,*54
1506820031.57,21510,14.38,74104.0,-1.17,-43.29,-43.41,0,*5E
1506820032.79,21511,14.38,74104.3,-1.17,-43.55,-43.87,0,*5E
1506820034.01,21512,14.38,74108.5,-1.15,-43.61,-43.61,0,*50
1506820035.26,21513,14.38,74108.8,-1.17,-43.09,-43.29,0,*51
1506820036.48,21514,14.38,74104.0,-1.15,-43.61,-43.87,0,*5E
1506820037.73,21515,14.38,74108.8,-1.17,-43.09,-43.29,0,*57
1506820038.96,21516,14.38,74104.5,-1.17,-43.49,-43.67,0,*5A
1506820040.19,21517,14.38,74104.3,-1.15,-43.67,-43.87,0,*5B
1506820041.41,21518,14.38,74104.5,-1.15,-43.61,-43.61,0,*5A
1506820042.67,21519,14.38,74104.8,-1.17,-43.55,-43.67,0,*58
1506820043.9,21520,14.38,74100.3,-1.17,-43.67,-43.95,0,*5E
1506820045.15,21521,14.38,74106.5,-1.17,-43.55,-43.67,0,*53
1506820046.38,21522,14.38,74102.3,-1.17,-43.55,-43.95,0,*5D
1506820047.63,21523,14.38,74098.0,-1.17,-43.67,-43.67,0,*50
1506820048.83,21524,14.38,74098.8,-1.17,-43.75,-43.87,0,*5A
1506820050.07,21525,14.38,74102.5,-1.17,-43.49,-43.67,0,*5A
1506820051.29,21526,14.38,74104.3,-1.17,-43.67,-43.75,0,*56
1506820052.55,21527,14.38,74100.3,-1.17,-43.09,-43.29,0,*56
1506820053.79,21528,14.38,74096.8,-1.15,-43.01,-43.29,0,*53
1506820055.02,21529,14.38,74100.8,-1.17,-43.29,-43.41,0,*54
1506820056.25,21530,14.38,74100.3,-1.15,-43.21,-43.35,0,*55
1506820057.47,21531,14.38,74100.0,-1.15,-43.35,-43.61,0,*50
1506820058.68,21532,14.38,74098.8,-1.15,-43.61,-43.87,0,*5A
1506820059.88,21533,14.38,74098.5,-1.17,-43.95,-44.27,0,*5F
1506820061.1,21534,14.38,74102.3,-1.17,-43.95,-44.13,0,*5F
1506820062.33,21535,14.38,74102.0,-1.17,-43.49,-43.67,0,*5B
1506820063.56,21536,14.38,74102.8,-1.17,-43.55,-43.87,0,*5B
1506820064.76,21537,14.38,74100.0,-1.17,-43.49,-43.49,0,*55
1506820065.96,21538,14.38,74106.8,-1.17,-42.63,-42.89,0,*5E
1506820067.2,21539,14.38,74100.5,-1.15,-42.95,-43.15,0,*50
1506820068.41,21540,14.38,74096.5,-1.15,-43.15,-43.35,0,*55
1506820069.64,21541,14.38,74096.5,-1.17,-43.41,-43.29,0,*5A
1506820070.86,21542,14.38,74100.0,-1.15,-43.01,-43.15,0,*50
1506820072.1,21543,14.38,74098.5,-1.15,-42.83,-43.15,0,*5A
1506820073.31,21544,14.38,74096.0,-1.15,-43.35,-43.35,0,*53
1506820074.52,21545,14.38,74098.3,-1.15,-43.35,-43.41,0,*51
1506820075.74,21546,14.38,74102.0,-1.15,-43.35,-43.41,0,*52
1506820076.98,21547,14.38,74104.3,-1.15,-43.01,-43.21,0,*52
1506820078.22,21548,14.38,74104.5,-1.15,-43.01,-43.21,0,*5D
1506820079.46,21549,14.38,74106.3,-1.13,-43.41,-43.41,0,*58
1506820080.72,21550,14.38,74106.0,-1.13,-42.83,-43.15,0,*5E
1506820081.96,21551,14.38,74106.3,-1.13,-43.15,-43.15,0,*51
1506820083.22,21552,14.38,74100.5,-1.13,-43.21,-43.35,0,*57
1506820084.45,21553,14.44,74106.5,-1.11,-43.29,-43.35,0,*5C
1506820085.69,21554,14.38,74102.3,-1.13,-43.35,-43.49,0,*5F
1506820086.92,21555,14.38,74100.8,-1.13,-43.61,-43.87,0,*5D
1506820088.17,21556,14.38,74102.0,-1.13,-43.61,-43.61,0,*56
1506820089.43,21557,14.38,74102.3,-1.13,-43.21,-43.35,0,*52
1506820090.66,21558,14.38,74100.5,-1.13,-43.35,-43.49,0,*53
1506820091.9,21559,14.38,74100.0,-1.13,-43.49,-43.49,0,*59
1506820093.16,21560,14.38,74106.8,-1.13,-43.21,-43.35,0,*56
1506820094.42,21561,14.38,74098.5,-1.13,-43.49,-43.81,0,*56